Simultaneous Nadir Overpasses (SNOs) Predictions

Prediction of SNOs between METOP-B and TERRA Satellite Orbit:

Table of predicted SNOs for the next 14.0 days since TLE Epoch: 4/6/2014
Index Date (METOP-B) Time (METOP-B) Lat,Lon (METOP-B) SZA (METOP-B ) Date (TERRA) Time (TERRA) Lat,Lon (TERRA) SZA (TERRA ) Distance(km) Time Diff (sec)
1 04/08/2014 05:07:48 81.31, 150.49 76.93 04/08/2014 05:08:20 81.32, 150.58 76.95 1.55 32
2 04/08/2014 05:58:29 -81.32, -42.04 103.08 04/08/2014 05:57:47 -81.31, -41.89 103.08 2.61 42
3 04/11/2014 00:42:08 81.31,-143.21 75.90 04/11/2014 00:42:34 81.31,-143.12 75.92 1.37 26
4 04/11/2014 01:32:48 -81.32, 24.70 104.05 04/11/2014 01:32:00 -81.33, 24.81 104.06 2.06 48
5 04/13/2014 20:16:28 81.32, -76.58 74.92 04/13/2014 20:16:48 81.31, -76.72 74.91 2.53 20
6 04/1
